Location: USNO
(38.9242°N, 77.0663°W)
Time: 11:56:49
(UTC-04:00)

N. Korean satellite - Pass Details

Date: 15 October 2017
Orbit: 459 x 517 km, 97.2° (Epoch: 21 October)

Event Time Altitude Azimuth Distance (km) Brightness Sun altitude
Rises 18:58:47 0° 159° (SSE) 2,546 10.1 -6.5°
Reaches altitude 10° 19:00:52 10° 155° (SSE) 1,660 9.1 -6.9°
Maximum altitude 19:04:22 59° 76° (ENE) 558 6.5 -7.6°
Drops below altitude 10° 19:07:51 10° 357° (N) 1,642 9.2 -8.3°
Sets 19:09:54 0° 353° (N) 2,516 10.2 -8.7°
